TITAN 3C TRANSTAGE DEB, 43285

Orbit data source: Space-Track

TITAN 3C TRANSTAGE DEB, 43285 is space debris in GEO originally from a launch on Sun, 09 Feb 1969 UTC launched from the Air Force Eastern Test Range (AFETR). Debris objects in space refer to the collection of defunct objects orbiting the Earth. Examples of debris include non-operational satellites, rocket bodies, and fragments generated from explosions, collisions, or faulty payload assembly.

Not visible in the next 10 days
Identifier
43285, 1969-013F
Orbit
GEO
Last TLE update
1 year ago
Origin
Manufacturer
Martin Marietta
Mission
Spacecraft
Bus & Motor
Unknown
Mass
Unknown
Launch date (UTC)
1969-02-09 (56 years ago)
Launch vehicle
Unknown
Launch site
Air Force Eastern Test Range (AFETR)
Object type
Payload
Rocket body
Debris
Shape & HBR
Unknown
Radar Cross Section
RCS unknown

Expand to show TLE details & history

TLE from 1 year ago
0 TITAN 3C TRANSTAGE DEB
1 43285U 69013F   24095.09498220 -.00000149  00000-0  00000-0 0  9990
2 43285   1.0197 245.9422 0270942 336.7445  21.0578  0.93368463 20597
Epoch: 2024-04-04T02:16Z
Definitive object data (Epoch: 2024-04-04T02:16:46.462Z)
Latitude
-0.00002°
Longitude
17.82882°
Altitude
36,726.172 km
Speed
3.079 km/s
True Right ascension
16h 19m 40s
True Declination
0° 00' 00"
Sunlit
Object was in daylight at TLE epoch
Visualization TLE readout
Latitude
-0.03644°
Longitude
-124.94753°
Altitude
38,563.857 km
Speed
2.954 km/s
Apparent Right ascension
06h 25m 23s
Apparent Declination
-5° 01' 57"
Sunlit
Object is in daylight
Visualization observer readout
Local Sidereal Time
13:53:41
Azimuth
280.612° WNW
Elevation
-20.086°
Doppler factor
1
Orbital elements
Apogee altitude
39,039.238 km
Perigee altitude
36,643.066 km
Semi-major axis
44,219.289 km
Eccentricity
0.0270942
Inclination
1.0197°
RAAN
245.9422°
Arg. of periapsis
336.7445°
True anomaly
22.20965°
Mean anomaly
21.0578°
Eccentric anomaly
21.63003°
Mean motion
0.23341 °/min
BSTAR
Unknown
Orbital period
1542.33 mins
Loading maneuver chart data...
Loading SW <> Apogee altitude chart data...

TITAN 3C TRANSTAGE DEB Visibility forecast

Observer location: undefined°, undefined°

TITAN 3C TRANSTAGE DEB is not visible in the next 10 days
Span
Click to sort rows by Start time (UTC) header in descending order
Start Az.
Max El. time (UTC)
Max El. Az.
Max El.
End time (UTC)
End Az.
|